Flag for U.S.A. Weather past 2 weeks in Asheville, North Carolina, U.S.A.

Now
78 °F

Sunny.


Feels Like: 80 °F
Forecast: 66 / 88 °F
Wind: 8 mph from North

Location: Asheville Regional Airport

Current Time: Aug 22, 2014 at 10:53:22 AM

Latest Report: Aug 22, 2014 at 9:54 AM


Visibility: 10 mi

Pressure: 30.09 "Hg

Humidity: 71%

Dew point: 68 °F

Location of AshevilleLocation

Historic Weather in Asheville — Graph

°F

Asheville temperature yesterday

Maximum temperature yesterday: 87 °F (at 3:54 PM)
Minimum temperature yesterday: 64 °F (at 6:54 AM)
Average temperature yesterday: 74 °F

Past Weeks' High & Low Weather Summary

 TemperatureHumidityPressure
High87 °F (Aug 20, 3:54 PM)97% (Aug 8, 6:54 AM)30.21 "Hg (Aug 8, 6:54 AM)
Low56 °F (Aug 14, 6:54 AM)40% (Aug 14, 2:54 PM)29.79 "Hg (Aug 12, 5:54 PM)
Average71 °F78%30.00 "Hg
* Reported Aug 7 8:54 AM — Aug 22 8:54 AM, Asheville, Weather by CustomWeather, © 2014

Note: Actual official high and low records may vary slightly from our data, if they occured in-between our weather recording intervals... More about our weather records

Advertising

Asheville weather history for previous 24 hours

 ConditionsComfort  
Time TempWeatherWind HumidityBarometerVisibility
8:54 AM
Aug 22
74 °FSunny.5 mph76%30.09 "Hg10 mi
7:54 AM69 °FSunny.7 mph90%30.09 "Hg10 mi
6:54 AM69 °FClear.6 mph87%30.07 "Hg10 mi
5:54 AM68 °FClear.3 mph93%30.06 "Hg10 mi
4:54 AM69 °FClear.7 mph93%30.06 "Hg10 mi
3:54 AM69 °FClear.No wind96%30.06 "Hg10 mi
2:54 AM70 °FClear.No wind93%30.07 "Hg10 mi
1:54 AM71 °FPassing clouds.No wind93%30.09 "Hg10 mi
12:54 AM72 °FOvercast.No wind91%30.11 "Hg10 mi
11:54 PM
Aug 21
72 °FPassing clouds.No wind91%30.11 "Hg10 mi
10:54 PM72 °FPassing clouds.3 mph93%30.10 "Hg10 mi
9:54 PM74 °FClear.No wind88%30.11 "Hg10 mi
8:54 PM76 °FSunny.No wind82%30.11 "Hg10 mi
7:54 PM79 °FPartly sunny.No wind72%30.10 "Hg10 mi
6:54 PM79 °FSunny.3 mph69%30.11 "Hg10 mi
5:54 PM79 °FLight rain. Scattered clouds.5 mph67%30.10 "Hg10 mi
4:54 PM79 °FScattered clouds.8 mph60%30.10 "Hg10 mi
3:54 PM87 °FThundershowers. Partly sunny.12 mph50%30.09 "Hg10 mi
2:54 PM86 °FPassing clouds.8 mph51%30.10 "Hg10 mi
1:54 PM85 °FSunny.9 mph53%30.12 "Hg10 mi
12:54 PM84 °FSunny.16 mph53%30.13 "Hg10 mi
11:54 AM82 °FSunny.8 mph55%30.13 "Hg10 mi
10:54 AM75 °FSunny.12 mph66%30.15 "Hg10 mi
Weather by CustomWeather, © 2014

See weather overviewHow to use our weather pages